Time,TemperatureF,DewpointF,PressureIn,WindDirection,WindDirectionDegrees,WindSpeedMPH,WindSpeedGustMPH,Humidity,HourlyPrecipIn,Conditions,Clouds,dailyrainin,SoftwareType,DateUTC
2017-03-30 00:00:00,52.8,53.0,29.61,NE,55,1.9,5.0,100,0.00,,,0.98,TxWx,2017-03-30 05:00:00,
2017-03-30 00:05:00,52.8,53.0,29.61,ENE,77,1.9,3.1,100,0.00,,,0.98,TxWx,2017-03-30 05:05:00,
2017-03-30 00:10:00,52.8,53.0,29.60,NE,55,1.2,3.1,100,0.00,,,0.98,TxWx,2017-03-30 05:10:00,
2017-03-30 00:15:00,52.8,53.0,29.60,East,100,1.2,3.1,100,0.00,,,0.98,TxWx,2017-03-30 05:15:00,
2017-03-30 00:20:00,52.9,53.0,29.60,East,100,3.1,3.7,100,0.00,,,0.98,TxWx,2017-03-30 05:20:00,
2017-03-30 00:25:00,52.9,53.0,29.60,NE,55,2.5,5.0,100,0.00,,,0.98,TxWx,2017-03-30 05:25:00,
2017-03-30 00:30:00,52.8,53.0,29.60,ENE,77,3.7,4.3,100,0.00,,,0.98,TxWx,2017-03-30 05:30:00,
2017-03-30 00:35:00,52.8,53.0,29.60,ESE,122,4.3,5.6,100,0.00,,,0.98,TxWx,2017-03-30 05:35:00,
2017-03-30 00:41:00,52.7,53.0,29.60,SSE,167,1.9,5.0,100,0.00,,,0.98,TxWx,2017-03-30 05:41:00,
2017-03-30 00:46:00,52.7,53.0,29.60,East,100,1.2,3.1,100,0.00,,,0.98,TxWx,2017-03-30 05:46:00,
2017-03-30 00:51:00,52.6,53.0,29.60,NE,55,1.9,5.0,100,0.00,,,0.98,TxWx,2017-03-30 05:51:00,
2017-03-30 01:01:00,52.6,53.0,29.59,ENE,77,3.7,3.7,100,0.00,,,0.00,TxWx,2017-03-30 06:01:00,
2017-03-30 01:06:00,52.5,52.0,29.59,SE,145,1.2,2.5,100,0.00,,,0.00,TxWx,2017-03-30 06:06:00,
2017-03-30 01:11:00,52.4,52.0,29.59,NE,55,1.2,7.4,100,0.00,,,0.00,TxWx,2017-03-30 06:11:00,
2017-03-30 01:17:00,52.4,52.0,29.59,East,100,1.2,6.2,100,0.00,,,0.00,TxWx,2017-03-30 06:17:00,
2017-03-30 01:22:00,52.4,52.0,29.58,East,100,1.9,3.7,100,0.00,,,0.00,TxWx,2017-03-30 06:22:00,
2017-03-30 01:27:00,52.4,52.0,29.59,NNE,32,0.0,1.2,100,0.00,,,0.00,TxWx,2017-03-30 06:27:00,
2017-03-30 01:32:00,52.4,52.0,29.58,East,100,3.1,3.1,100,0.00,,,0.00,TxWx,2017-03-30 06:32:00,
2017-03-30 01:37:00,52.4,52.0,29.58,ENE,77,0.6,3.7,100,0.00,,,0.00,TxWx,2017-03-30 06:37:00,
2017-03-30 01:43:00,52.4,52.0,29.58,ENE,77,0.6,4.3,100,0.00,,,0.00,TxWx,2017-03-30 06:43:00,
2017-03-30 01:48:00,52.4,52.0,29.58,SE,145,1.9,4.3,100,0.00,,,0.00,TxWx,2017-03-30 06:48:00,
2017-03-30 01:53:00,52.4,52.0,29.58,NE,55,1.2,2.5,100,0.00,,,0.00,TxWx,2017-03-30 06:53:00,
2017-03-30 01:58:00,52.5,53.0,29.58,East,100,1.9,4.3,100,0.00,,,0.01,TxWx,2017-03-30 06:58:00,
2017-03-30 02:03:00,52.5,53.0,29.58,ESE,122,2.5,4.3,100,0.60,,,0.01,TxWx,2017-03-30 07:03:00,
2017-03-30 02:08:00,52.5,53.0,29.57,ESE,122,0.6,1.2,100,0.60,,,0.01,TxWx,2017-03-30 07:08:00,
2017-03-30 02:13:00,52.5,53.0,29.57,NE,55,3.1,3.1,100,0.00,,,0.01,TxWx,2017-03-30 07:13:00,
2017-03-30 02:18:00,52.5,53.0,29.58,South,190,0.6,4.3,100,0.00,,,0.01,TxWx,2017-03-30 07:18:00,
2017-03-30 02:24:00,52.6,53.0,29.58,East,100,1.2,2.5,100,0.00,,,0.01,TxWx,2017-03-30 07:24:00,
2017-03-30 02:29:00,52.6,53.0,29.57,ENE,77,1.2,3.7,100,0.00,,,0.01,TxWx,2017-03-30 07:29:00,
2017-03-30 02:34:00,52.6,53.0,29.57,ESE,122,1.9,4.3,100,0.00,,,0.01,TxWx,2017-03-30 07:34:00,
2017-03-30 02:39:00,52.6,53.0,29.57,East,100,1.9,4.3,100,0.00,,,0.01,TxWx,2017-03-30 07:39:00,
2017-03-30 02:44:00,52.6,53.0,29.57,WNW,302,0.6,2.5,100,0.00,,,0.01,TxWx,2017-03-30 07:44:00,
2017-03-30 02:49:00,52.6,53.0,29.57,ENE,77,0.6,3.7,100,0.00,,,0.01,TxWx,2017-03-30 07:49:00,
2017-03-30 02:55:00,52.4,52.0,29.57,SSW,212,1.9,3.1,100,0.00,,,0.01,TxWx,2017-03-30 07:55:00,
2017-03-30 03:06:00,52.1,52.0,29.58,SE,145,1.2,1.9,100,0.00,,,0.01,TxWx,2017-03-30 08:06:00,
2017-03-30 03:11:00,51.7,52.0,29.57,SW,235,2.5,5.6,100,0.00,,,0.01,TxWx,2017-03-30 08:11:00,
2017-03-30 03:17:00,50.5,50.0,29.57,South,190,5.0,5.6,100,0.00,,,0.01,TxWx,2017-03-30 08:17:00,
2017-03-30 03:22:00,49.8,50.0,29.57,South,190,3.1,4.3,100,0.00,,,0.01,TxWx,2017-03-30 08:22:00,
2017-03-30 03:27:00,49.4,49.0,29.57,South,190,1.9,4.3,100,0.00,,,0.01,TxWx,2017-03-30 08:27:00,
2017-03-30 03:32:00,49.0,49.0,29.57,WSW,257,1.2,6.2,100,0.00,,,0.01,TxWx,2017-03-30 08:32:00,
2017-03-30 03:37:00,48.6,49.0,29.57,ESE,122,1.9,4.3,100,0.00,,,0.01,TxWx,2017-03-30 08:37:00,
2017-03-30 03:43:00,48.3,48.0,29.56,WSW,257,2.5,2.5,100,0.00,,,0.01,TxWx,2017-03-30 08:43:00,
2017-03-30 03:48:00,48.1,48.0,29.57,SW,235,2.5,4.3,100,0.00,,,0.01,TxWx,2017-03-30 08:48:00,
2017-03-30 03:53:00,47.9,48.0,29.56,SW,235,1.9,1.9,100,0.00,,,0.01,TxWx,2017-03-30 08:53:00,
2017-03-30 03:58:00,47.8,48.0,29.56,SW,235,3.7,5.0,100,0.00,,,0.01,TxWx,2017-03-30 08:58:00,
2017-03-30 04:03:00,47.7,48.0,29.56,SW,235,3.7,12.4,99,0.00,,,0.01,TxWx,2017-03-30 09:03:00,
2017-03-30 04:08:00,47.7,48.0,29.56,SW,235,2.5,2.5,99,0.00,,,0.01,TxWx,2017-03-30 09:08:00,
2017-03-30 04:14:00,47.5,47.0,29.57,SW,235,5.0,6.2,99,0.00,,,0.01,TxWx,2017-03-30 09:14:00,
2017-03-30 04:19:00,47.5,47.0,29.56,South,190,2.5,4.3,98,0.00,,,0.01,TxWx,2017-03-30 09:19:00,
2017-03-30 04:24:00,47.6,47.0,29.56,SSE,167,1.2,2.5,98,0.00,,,0.01,TxWx,2017-03-30 09:24:00,
2017-03-30 04:29:00,47.5,46.0,29.56,SW,235,1.2,2.5,98,0.00,,,0.01,TxWx,2017-03-30 09:29:00,
2017-03-30 04:34:00,47.4,46.0,29.56,ENE,77,0.0,1.2,98,0.00,,,0.01,TxWx,2017-03-30 09:34:00,
2017-03-30 04:39:00,47.3,46.0,29.56,East,100,1.2,1.2,98,0.00,,,0.01,TxWx,2017-03-30 09:39:00,
2017-03-30 04:44:00,47.3,46.0,29.56,WSW,257,0.6,1.9,98,0.00,,,0.01,TxWx,2017-03-30 09:44:00,
2017-03-30 04:50:00,47.3,46.0,29.56,ENE,77,1.2,1.9,98,0.00,,,0.01,TxWx,2017-03-30 09:50:00,
2017-03-30 04:55:00,47.2,46.0,29.56,ENE,77,0.6,0.6,98,0.00,,,0.01,TxWx,2017-03-30 09:55:00,
2017-03-30 05:00:00,47.2,46.0,29.56,SSE,167,0.6,0.6,98,0.00,,,0.01,TxWx,2017-03-30 10:00:00,
2017-03-30 05:05:00,47.3,46.0,29.56,East,100,0.6,2.5,98,0.00,,,0.01,TxWx,2017-03-30 10:05:00,
2017-03-30 05:10:00,47.2,46.0,29.56,East,100,1.2,1.9,98,0.00,,,0.01,TxWx,2017-03-30 10:10:00,
2017-03-30 05:15:00,47.2,46.0,29.56,ESE,122,1.2,1.2,98,0.00,,,0.01,TxWx,2017-03-30 10:15:00,
2017-03-30 05:21:00,47.2,46.0,29.56,East,100,1.2,1.9,98,0.00,,,0.01,TxWx,2017-03-30 10:21:00,
2017-03-30 05:26:00,47.1,46.0,29.56,East,100,0.6,1.9,98,0.00,,,0.01,TxWx,2017-03-30 10:26:00,
2017-03-30 05:31:00,47.1,46.0,29.56,ESE,122,1.2,3.1,98,0.00,,,0.01,TxWx,2017-03-30 10:31:00,
2017-03-30 05:36:00,47.0,46.0,29.56,NE,55,1.9,1.9,98,0.00,,,0.01,TxWx,2017-03-30 10:36:00,
2017-03-30 05:41:00,47.0,46.0,29.56,SSW,212,1.9,3.1,98,0.00,,,0.01,TxWx,2017-03-30 10:41:00,
2017-03-30 05:46:00,46.9,46.0,29.57,SE,145,1.2,1.2,98,0.00,,,0.01,TxWx,2017-03-30 10:46:00,
2017-03-30 05:51:00,46.9,46.0,29.56,East,100,0.6,1.9,98,0.00,,,0.01,TxWx,2017-03-30 10:51:00,